Time,TemperatureF,DewpointF,PressureIn,WindDirection,WindDirectionDegrees,WindSpeedMPH,WindSpeedGustMPH,Humidity,HourlyPrecipIn,Conditions,Clouds,dailyrainin,SoftwareType,DateUTC
2013-05-03 00:00:00,54.7,28.3,29.26,West,270,0.0,0.0,36,0.00,,---,0.00,VWS V13.01,2013-05-03 04:00:00,
2013-05-03 00:01:00,54.5,28.1,29.26,West,270,0.0,0.0,36,0.00,,---,0.00,VWS V13.01,2013-05-03 04:01:00,
2013-05-03 00:02:00,54.5,28.1,29.26,West,270,0.0,0.0,36,0.00,,---,0.00,VWS V13.01,2013-05-03 04:02:00,
2013-05-03 00:17:00,54.3,28.6,29.26,West,270,0.0,0.0,37,0.00,,---,0.00,VWS V13.01,2013-05-03 04:17:00,
2013-05-03 00:20:00,54.1,28.5,29.26,West,270,0.0,0.0,37,0.00,,---,0.00,VWS V13.01,2013-05-03 04:20:00,
2013-05-03 00:25:00,54.0,28.3,29.26,West,270,0.0,0.0,37,0.00,,---,0.00,VWS V13.01,2013-05-03 04:25:00,
2013-05-03 00:31:00,53.8,28.8,29.26,West,270,0.0,0.0,38,0.00,,---,0.00,VWS V13.01,2013-05-03 04:31:00,
2013-05-03 00:36:00,53.4,29.1,29.26,West,270,0.0,0.0,39,0.00,,---,0.00,VWS V13.01,2013-05-03 04:36:00,
2013-05-03 00:41:00,53.2,28.9,29.26,West,270,0.0,0.0,39,0.00,,---,0.00,VWS V13.01,2013-05-03 04:41:00,
2013-05-03 00:46:00,53.2,28.9,29.26,West,270,0.0,0.0,39,0.00,,---,0.00,VWS V13.01,2013-05-03 04:46:00,
2013-05-03 00:51:00,53.1,29.4,29.26,West,270,0.0,0.0,40,0.00,,---,0.00,VWS V13.01,2013-05-03 04:51:00,
2013-05-03 00:56:00,53.1,29.4,29.26,West,270,0.0,0.0,40,0.00,,---,0.00,VWS V13.01,2013-05-03 04:56:00,
2013-05-03 01:01:00,52.9,29.8,29.26,West,270,0.0,0.0,41,0.00,,---,0.00,VWS V13.01,2013-05-03 05:01:00,
2013-05-03 01:06:00,52.7,29.7,29.26,West,270,0.0,0.0,41,0.00,,---,0.00,VWS V13.01,2013-05-03 05:06:00,
2013-05-03 01:11:00,52.5,29.5,29.26,West,270,0.0,0.0,41,0.00,,---,0.00,VWS V13.01,2013-05-03 05:11:00,
2013-05-03 01:16:00,52.2,30.4,29.26,West,270,0.0,0.0,43,0.00,,---,0.00,VWS V13.01,2013-05-03 05:16:00,
2013-05-03 01:21:00,51.8,30.0,29.26,West,270,0.0,0.0,43,0.00,,---,0.00,VWS V13.01,2013-05-03 05:21:00,
2013-05-03 01:26:00,51.6,31.0,29.26,West,270,0.0,0.0,45,0.00,,---,0.00,VWS V13.01,2013-05-03 05:26:00,
2013-05-03 01:31:00,51.3,31.2,29.26,West,270,0.0,0.0,46,0.00,,---,0.00,VWS V13.01,2013-05-03 05:31:00,
2013-05-03 01:36:00,50.9,31.4,29.26,West,270,0.0,0.0,47,0.00,,---,0.00,VWS V13.01,2013-05-03 05:36:00,
2013-05-03 01:41:00,50.7,31.8,29.26,West,270,0.0,0.0,48,0.00,,---,0.00,VWS V13.01,2013-05-03 05:41:00,
2013-05-03 01:47:00,50.7,31.8,29.26,West,270,0.0,0.0,48,0.00,,---,0.00,VWS V13.01,2013-05-03 05:47:00,
2013-05-03 01:52:00,50.5,32.1,29.26,West,270,0.0,0.0,49,0.00,,---,0.00,VWS V13.01,2013-05-03 05:52:00,
2013-05-03 01:57:00,50.5,32.1,29.26,West,270,0.0,0.0,49,0.00,,---,0.00,VWS V13.01,2013-05-03 05:57:00,
2013-05-03 02:02:00,50.4,32.4,29.26,West,270,0.0,0.0,50,0.00,,---,0.00,VWS V13.01,2013-05-03 06:02:00,
2013-05-03 02:07:00,50.4,32.9,29.23,West,270,0.0,0.0,51,0.00,,---,0.00,VWS V13.01,2013-05-03 06:07:00,
2013-05-03 02:12:00,50.2,32.8,29.23,West,270,0.0,0.0,51,0.00,,---,0.00,VWS V13.01,2013-05-03 06:12:00,
2013-05-03 02:17:00,50.2,32.8,29.23,West,270,0.0,0.0,51,0.00,,---,0.00,VWS V13.01,2013-05-03 06:17:00,
2013-05-03 02:22:00,50.2,32.8,29.23,West,270,0.0,0.0,51,0.00,,---,0.00,VWS V13.01,2013-05-03 06:22:00,
2013-05-03 02:27:00,50.2,32.8,29.23,West,270,0.0,0.0,51,0.00,,---,0.00,VWS V13.01,2013-05-03 06:27:00,
2013-05-03 02:32:00,50.2,32.3,29.23,West,270,0.0,0.0,50,0.00,,---,0.00,VWS V13.01,2013-05-03 06:32:00,
2013-05-03 02:37:00,50.2,32.3,29.23,West,270,0.0,0.0,50,0.00,,---,0.00,VWS V13.01,2013-05-03 06:37:00,
2013-05-03 02:42:00,50.0,32.1,29.23,West,270,0.0,0.0,50,0.00,,---,0.00,VWS V13.01,2013-05-03 06:42:00,
2013-05-03 02:47:00,50.0,32.1,29.23,West,270,0.0,0.0,50,0.00,,---,0.00,VWS V13.01,2013-05-03 06:47:00,
2013-05-03 02:52:00,49.6,32.3,29.23,West,270,0.0,0.0,51,0.00,,---,0.00,VWS V13.01,2013-05-03 06:52:00,
2013-05-03 02:57:00,49.5,32.6,29.23,West,270,0.0,0.0,52,0.00,,---,0.00,VWS V13.01,2013-05-03 06:57:00,
2013-05-03 03:02:00,49.5,32.6,29.23,West,270,0.0,0.0,52,0.00,,---,0.00,VWS V13.01,2013-05-03 07:02:00,
2013-05-03 03:07:00,49.3,32.4,29.23,West,270,0.0,0.0,52,0.00,,---,0.00,VWS V13.01,2013-05-03 07:07:00,
2013-05-03 03:13:00,49.1,32.2,29.23,West,270,0.0,0.0,52,0.00,,---,0.00,VWS V13.01,2013-05-03 07:13:00,
2013-05-03 03:18:00,48.9,32.6,29.23,West,270,0.0,0.0,53,0.00,,---,0.00,VWS V13.01,2013-05-03 07:18:00,
2013-05-03 03:23:00,48.7,31.9,29.23,West,270,0.0,0.0,52,0.00,,---,0.00,VWS V13.01,2013-05-03 07:23:00,
2013-05-03 03:28:00,48.7,32.4,29.23,West,270,0.0,0.0,53,0.00,,---,0.00,VWS V13.01,2013-05-03 07:28:00,
2013-05-03 03:33:00,48.6,32.2,29.23,West,270,0.0,0.0,53,0.00,,---,0.00,VWS V13.01,2013-05-03 07:33:00,
2013-05-03 03:38:00,48.6,31.8,29.23,West,270,0.0,0.0,52,0.00,,---,0.00,VWS V13.01,2013-05-03 07:38:00,
2013-05-03 03:43:00,48.4,31.6,29.23,West,270,0.0,0.0,52,0.00,,---,0.00,VWS V13.01,2013-05-03 07:43:00,
2013-05-03 03:48:00,48.2,31.4,29.23,West,270,0.0,0.0,52,0.00,,---,0.00,VWS V13.01,2013-05-03 07:48:00,
2013-05-03 03:53:00,48.0,31.7,29.23,West,270,0.0,0.0,53,0.00,,---,0.00,VWS V13.01,2013-05-03 07:53:00,
2013-05-03 03:58:00,47.8,31.5,29.23,West,270,0.0,0.0,53,0.00,,---,0.00,VWS V13.01,2013-05-03 07:58:00,
2013-05-03 04:03:00,47.8,32.0,29.23,West,270,0.0,0.0,54,0.00,,---,0.00,VWS V13.01,2013-05-03 08:03:00,
2013-05-03 04:08:00,47.5,31.7,29.23,West,270,0.0,0.0,54,0.00,,---,0.00,VWS V13.01,2013-05-03 08:08:00,
2013-05-03 04:13:00,47.3,32.0,29.23,West,270,0.0,0.0,55,0.00,,---,0.00,VWS V13.01,2013-05-03 08:13:00,
2013-05-03 04:18:00,47.3,32.0,29.23,West,270,0.0,0.0,55,0.00,,---,0.00,VWS V13.01,2013-05-03 08:18:00,
2013-05-03 04:23:00,47.1,31.8,29.23,West,270,0.0,0.0,55,0.00,,---,0.00,VWS V13.01,2013-05-03 08:23:00,
2013-05-03 04:28:00,46.8,31.9,29.23,West,270,0.0,0.0,56,0.00,,---,0.00,VWS V13.01,2013-05-03 08:28:00,
2013-05-03 04:34:00,46.6,32.2,29.23,West,270,0.0,0.0,57,0.00,,---,0.00,VWS V13.01,2013-05-03 08:34:00,
2013-05-03 04:39:00,46.4,32.4,29.23,West,270,0.0,0.0,58,0.00,,---,0.00,VWS V13.01,2013-05-03 08:39:00,
2013-05-03 04:44:00,46.2,33.1,29.23,West,270,0.0,0.0,60,0.00,,---,0.00,VWS V13.01,2013-05-03 08:44:00,
2013-05-03 04:49:00,46.0,33.4,29.23,West,270,0.0,0.0,61,0.00,,---,0.00,VWS V13.01,2013-05-03 08:49:00,
2013-05-03 04:54:00,46.0,33.8,29.23,West,270,0.0,0.0,62,0.00,,---,0.00,VWS V13.01,2013-05-03 08:54:00,
2013-05-03 04:59:00,46.0,34.2,29.23,West,270,0.0,0.0,63,0.00,,---,0.00,VWS V13.01,2013-05-03 08:59:00,
2013-05-03 05:04:00,46.0,35.0,29.23,West,270,0.0,0.0,65,0.00,,---,0.00,VWS V13.01,2013-05-03 09:04:00,
2013-05-03 05:09:00,46.0,35.3,29.23,West,270,0.0,0.0,66,0.00,,---,0.00,VWS V13.01,2013-05-03 09:09:00,
2013-05-03 05:14:00,45.9,35.5,29.23,West,270,0.0,0.0,67,0.00,,---,0.00,VWS V13.01,2013-05-03 09:14:00,
2013-05-03 05:19:00,45.9,35.9,29.23,West,270,0.0,0.0,68,0.00,,---,0.00,VWS V13.01,2013-05-03 09:19:00,
2013-05-03 05:24:00,45.9,36.3,29.26,West,270,0.0,0.0,69,0.00,,---,0.00,VWS V13.01,2013-05-03 09:24:00,
2013-05-03 05:29:00,45.5,35.9,29.26,West,270,0.0,0.0,69,0.00,,---,0.00,VWS V13.01,2013-05-03 09:29:00,
2013-05-03 05:34:00,45.5,35.9,29.26,West,270,0.0,0.0,69,0.00,,---,0.00,VWS V13.01,2013-05-03 09:34:00,
2013-05-03 05:39:00,45.5,36.3,29.23,West,270,0.0,0.0,70,0.00,,---,0.00,VWS V13.01,2013-05-03 09:39:00,
2013-05-03 05:44:00,45.5,36.7,29.23,West,270,0.0,0.0,71,0.00,,---,0.00,VWS V13.01,2013-05-03 09:44:00,
2013-05-03 05:49:00,45.9,37.7,29.23,West,270,0.0,0.0,73,0.00,,---,0.00,VWS V13.01,2013-05-03 09:49:00,
2013-05-03 05:55:00,45.9,38.0,29.26,West,270,0.0,0.0,74,0.00,,---,0.00,VWS V13.01,2013-05-03 09:55:00,
2013-05-03 06:00:00,45.9,38.0,29.26,West,270,0.0,0.0,74,0.00,,---,0.00,VWS V13.01,2013-05-03 10:00:00,
2013-05-03 06:05:00,45.9,38.4,29.26,West,270,0.0,0.0,75,0.00,,---,0.00,VWS V13.01,2013-05-03 10:05:00,
2013-05-03 06:10:00,45.7,38.2,29.23,West,270,0.0,0.0,75,0.00,,---,0.00,VWS V13.01,2013-05-03 10:10:00,
2013-05-03 06:15:00,45.5,38.0,29.23,West,270,0.0,0.0,75,0.00,,---,0.00,VWS V13.01,2013-05-03 10:15:00,
2013-05-03 06:20:00,45.5,38.0,29.23,West,270,0.0,0.0,75,0.00,,---,0.00,VWS V13.01,2013-05-03 10:20:00,
2013-05-03 06:25:00,45.5,38.0,29.26,West,270,0.0,0.0,75,0.00,,---,0.00,VWS V13.01,2013-05-03 10:25:00,
2013-05-03 06:30:00,45.7,38.6,29.26,West,270,0.0,0.0,76,0.00,,---,0.00,VWS V13.01,2013-05-03 10:30:00,
2013-05-03 06:35:00,45.7,38.9,29.26,West,270,0.0,0.0,77,0.00,,---,0.00,VWS V13.01,2013-05-03 10:35:00,
2013-05-03 06:40:00,45.9,39.1,29.26,West,270,0.0,0.0,77,0.00,,---,0.00,VWS V13.01,2013-05-03 10:40:00,
2013-05-03 06:45:00,45.9,39.1,29.26,West,270,0.0,0.0,77,0.00,,---,0.00,VWS V13.01,2013-05-03 10:45:00,
2013-05-03 06:50:00,46.0,39.6,29.26,West,270,0.0,0.0,78,0.00,,---,0.00,VWS V13.01,2013-05-03 10:50:00,
2013-05-03 06:55:00,46.0,39.6,29.26,West,270,0.0,0.0,78,0.00,,---,0.00,VWS V13.01,2013-05-03 10:55:00,
2013-05-03 07:00:00,45.9,39.4,29.26,West,270,0.0,0.0,78,0.00,,---,0.00,VWS V13.01,2013-05-03 11:00:00,
2013-05-03 07:05:00,46.0,39.6,29.26,West,270,0.0,0.0,78,0.00,,---,0.00,VWS V13.01,2013-05-03 11:05:00,
2013-05-03 07:10:00,46.0,39.9,29.29,West,270,0.0,0.0,79,0.00,,---,0.00,VWS V13.01,2013-05-03 11:10:00,
2013-05-03 07:16:00,46.0,39.9,29.29,West,270,0.0,0.0,79,0.00,,---,0.00,VWS V13.01,2013-05-03 11:16:00,
2013-05-03 07:21:00,46.2,40.1,29.29,West,270,0.0,0.0,79,0.00,,---,0.00,VWS V13.01,2013-05-03 11:21:00,
2013-05-03 07:26:00,46.4,40.2,29.26,West,270,0.0,0.0,79,0.00,,---,0.00,VWS V13.01,2013-05-03 11:26:00,
2013-05-03 07:31:00,47.3,41.1,29.26,West,270,0.0,0.0,79,0.00,,---,0.00,VWS V13.01,2013-05-03 11:31:00,
2013-05-03 07:36:00,47.3,41.1,29.26,West,270,0.0,0.0,79,0.00,,---,0.00,VWS V13.01,2013-05-03 11:36:00,
2013-05-03 07:41:00,48.2,42.0,29.26,West,270,0.0,0.0,79,0.00,,---,0.00,VWS V13.01,2013-05-03 11:41:00,
2013-05-03 07:46:00,48.2,42.0,29.26,West,270,0.0,0.0,79,0.00,,---,0.00,VWS V13.01,2013-05-03 11:46:00,
2013-05-03 07:51:00,49.1,42.2,29.26,West,270,0.0,0.0,77,0.00,,---,0.00,VWS V13.01,2013-05-03 11:51:00,
2013-05-03 07:56:00,49.3,42.0,29.29,West,270,0.0,0.0,76,0.00,,---,0.00,VWS V13.01,2013-05-03 11:56:00,
2013-05-03 08:01:00,50.5,38.8,29.29,West,270,0.0,0.0,64,0.00,,---,0.00,VWS V13.01,2013-05-03 12:01:00,
2013-05-03 08:06:00,51.1,37.3,29.29,West,270,0.0,0.0,59,0.00,,---,0.00,VWS V13.01,2013-05-03 12:06:00,
2013-05-03 08:11:00,51.6,35.1,29.29,West,270,0.0,0.0,53,0.00,,---,0.00,VWS V13.01,2013-05-03 12:11:00,
2013-05-03 08:17:00,52.2,33.1,29.29,West,270,0.0,0.0,48,0.00,,---,0.00,VWS V13.01,2013-05-03 12:17:00,
2013-05-03 08:22:00,52.3,32.7,29.29,NW,315,0.0,0.0,47,0.00,,---,0.00,VWS V13.01,2013-05-03 12:22:00,
2013-05-03 08:27:00,52.7,29.7,29.29,NW,315,0.0,0.0,41,0.00,,---,0.00,VWS V13.01,2013-05-03 12:27:00,
2013-05-03 08:32:00,53.1,29.4,29.29,NW,315,0.0,0.0,40,0.00,,---,0.00,VWS V13.01,2013-05-03 12:32:00,
2013-05-03 08:37:00,53.4,29.7,29.29,SW,225,0.0,0.0,40,0.00,,---,0.00,VWS V13.01,2013-05-03 12:37:00,
2013-05-03 08:42:00,53.6,28.6,29.29,SW,225,0.0,0.0,38,0.00,,---,0.00,VWS V13.01,2013-05-03 12:42:00,
2013-05-03 08:47:00,54.0,28.3,29.29,SW,225,0.0,0.0,37,0.00,,---,0.00,VWS V13.01,2013-05-03 12:47:00,
2013-05-03 08:52:00,54.1,28.5,29.29,SE,135,0.0,0.0,37,0.00,,---,0.00,VWS V13.01,2013-05-03 12:52:00,
2013-05-03 08:57:00,54.3,28.0,29.29,NE,45,0.0,0.0,36,0.00,,---,0.00,VWS V13.01,2013-05-03 12:57:00,
2013-05-03 09:02:00,54.5,28.1,29.29,SE,135,0.0,0.0,36,0.00,,---,0.00,VWS V13.01,2013-05-03 13:02:00,
2013-05-03 09:08:00,55.2,28.8,29.29,SE,135,0.0,0.0,36,0.00,,---,0.00,VWS V13.01,2013-05-03 13:08:00,
2013-05-03 09:13:00,55.4,28.2,29.29,SE,135,0.0,0.0,35,0.00,,---,0.00,VWS V13.01,2013-05-03 13:13:00,
2013-05-03 09:18:00,55.9,28.7,29.29,East,90,0.0,0.0,35,0.00,,---,0.00,VWS V13.01,2013-05-03 13:18:00,
2013-05-03 09:23:00,55.9,28.0,29.29,North,0,0.0,0.0,34,0.00,,---,0.00,VWS V13.01,2013-05-03 13:23:00,
2013-05-03 09:28:00,56.5,27.8,29.29,North,0,0.0,0.0,33,0.00,,---,0.00,VWS V13.01,2013-05-03 13:28:00,
2013-05-03 09:33:00,56.7,27.2,29.29,WSW,248,0.0,0.0,32,0.00,,---,0.00,VWS V13.01,2013-05-03 13:33:00,
2013-05-03 09:38:00,56.8,27.3,29.29,WSW,248,0.0,0.0,32,0.00,,---,0.00,VWS V13.01,2013-05-03 13:38:00,
2013-05-03 09:43:00,56.8,27.3,29.29,WSW,248,0.0,0.0,32,0.00,,---,0.00,VWS V13.01,2013-05-03 13:43:00,
2013-05-03 09:48:00,56.8,27.3,29.29,SE,135,0.0,0.0,32,0.00,,---,0.00,VWS V13.01,2013-05-03 13:48:00,
2013-05-03 09:53:00,56.7,28.6,29.29,SE,135,0.0,0.0,34,0.00,,---,0.00,VWS V13.01,2013-05-03 13:53:00,
2013-05-03 09:58:00,56.7,29.3,29.29,ESE,112,0.0,0.0,35,0.00,,---,0.00,VWS V13.01,2013-05-03 13:58:00,
2013-05-03 10:03:00,56.8,29.5,29.29,East,90,0.0,0.0,35,0.00,,---,0.00,VWS V13.01,2013-05-03 14:03:00,
2013-05-03 10:08:00,57.6,28.0,29.29,ENE,68,0.0,0.0,32,0.00,,---,0.00,VWS V13.01,2013-05-03 14:08:00,
2013-05-03 10:13:00,58.1,27.6,29.29,NNE,22,0.0,0.0,31,0.00,,---,0.00,VWS V13.01,2013-05-03 14:13:00,
2013-05-03 10:19:00,57.9,26.7,29.29,East,90,0.0,0.0,30,0.00,,---,0.00,VWS V13.01,2013-05-03 14:19:00,
2013-05-03 10:24:00,57.6,26.4,29.32,NE,45,0.0,0.0,30,0.00,,---,0.00,VWS V13.01,2013-05-03 14:24:00,
2013-05-03 10:29:00,57.7,27.3,29.32,South,180,0.0,0.0,31,0.00,,---,0.00,VWS V13.01,2013-05-03 14:29:00,
2013-05-03 10:34:00,57.9,26.7,29.32,South,180,0.0,0.0,30,0.00,,---,0.00,VWS V13.01,2013-05-03 14:34:00,
2013-05-03 10:39:00,57.9,27.5,29.29,South,180,0.0,0.0,31,0.00,,---,0.00,VWS V13.01,2013-05-03 14:39:00,
2013-05-03 10:44:00,57.9,27.5,29.29,South,180,0.0,0.0,31,0.00,,---,0.00,VWS V13.01,2013-05-03 14:44:00,
2013-05-03 10:49:00,59.0,26.0,29.29,SSE,158,0.0,0.0,28,0.00,,---,0.00,VWS V13.01,2013-05-03 14:49:00,
2013-05-03 10:54:00,59.7,24.8,29.29,NE,45,0.0,0.0,26,0.00,,---,0.00,VWS V13.01,2013-05-03 14:54:00,
2013-05-03 10:59:00,59.7,24.8,29.29,NE,45,0.0,0.0,26,0.00,,---,0.00,VWS V13.01,2013-05-03 14:59:00,
2013-05-03 11:04:00,61.0,24.9,29.29,South,180,0.0,0.0,25,0.00,,---,0.00,VWS V13.01,2013-05-03 15:04:00,
2013-05-03 11:09:00,60.3,24.3,29.32,South,180,0.0,0.0,25,0.00,,---,0.00,VWS V13.01,2013-05-03 15:09:00,
2013-05-03 11:14:00,59.4,24.5,29.32,South,180,0.0,0.0,26,0.00,,---,0.00,VWS V13.01,2013-05-03 15:14:00,
2013-05-03 11:19:00,59.4,24.5,29.32,South,180,0.0,0.0,26,0.00,,---,0.00,VWS V13.01,2013-05-03 15:19:00,
2013-05-03 11:24:00,59.7,24.8,29.29,South,180,0.0,0.0,26,0.00,,---,0.00,VWS V13.01,2013-05-03 15:24:00,
2013-05-03 11:30:00,60.3,25.3,29.29,SE,135,0.0,0.0,26,0.00,,---,0.00,VWS V13.01,2013-05-03 15:30:00,
2013-05-03 11:35:00,59.7,23.9,29.29,WSW,248,0.0,0.0,25,0.00,,---,0.00,VWS V13.01,2013-05-03 15:35:00,
2013-05-03 11:40:00,59.7,23.9,29.29,South,180,0.0,0.0,25,0.00,,---,0.00,VWS V13.01,2013-05-03 15:40:00,
2013-05-03 11:45:00,60.4,24.5,29.29,East,90,0.0,0.0,25,0.00,,---,0.00,VWS V13.01,2013-05-03 15:45:00,
2013-05-03 11:50:00,61.3,25.2,29.29,SSE,158,0.0,0.0,25,0.00,,---,0.00,VWS V13.01,2013-05-03 15:50:00,
2013-05-03 11:55:00,61.7,25.5,29.29,SSE,158,0.0,0.0,25,0.00,,---,0.00,VWS V13.01,2013-05-03 15:55:00,
2013-05-03 12:00:00,62.1,25.9,29.29,ESE,112,0.0,0.0,25,0.00,,---,0.00,VWS V13.01,2013-05-03 16:00:00,
2013-05-03 12:05:00,62.2,26.0,29.29,WSW,248,0.0,0.0,25,0.00,,---,0.00,VWS V13.01,2013-05-03 16:05:00,
2013-05-03 12:10:00,62.2,25.0,29.29,NW,315,0.0,0.0,24,0.00,,---,0.00,VWS V13.01,2013-05-03 16:10:00,
2013-05-03 12:16:00,62.2,25.0,29.29,NW,315,0.0,0.0,24,0.00,,---,0.00,VWS V13.01,2013-05-03 16:16:00,
2013-05-03 12:21:00,61.7,24.6,29.29,SE,135,0.0,0.0,24,0.00,,---,0.00,VWS V13.01,2013-05-03 16:21:00,
2013-05-03 12:26:00,62.1,24.9,29.29,West,270,0.0,0.0,24,0.00,,---,0.00,VWS V13.01,2013-05-03 16:26:00,
2013-05-03 12:31:00,61.7,24.6,29.29,NE,45,0.0,0.0,24,0.00,,---,0.00,VWS V13.01,2013-05-03 16:31:00,
2013-05-03 12:36:00,61.7,24.6,29.29,NE,45,0.0,0.0,24,0.00,,---,0.00,VWS V13.01,2013-05-03 16:36:00,
2013-05-03 12:41:00,61.7,24.6,29.29,South,180,0.0,0.0,24,0.00,,---,0.00,VWS V13.01,2013-05-03 16:41:00,
2013-05-03 12:46:00,62.8,25.5,29.29,East,90,0.0,0.0,24,0.00,,---,0.00,VWS V13.01,2013-05-03 16:46:00,
2013-05-03 12:51:00,62.8,25.5,29.29,East,90,0.0,0.0,24,0.00,,---,0.00,VWS V13.01,2013-05-03 16:51:00,
2013-05-03 12:56:00,63.7,26.2,29.29,East,90,0.0,0.0,24,0.00,,---,0.00,VWS V13.01,2013-05-03 16:56:00,
2013-05-03 13:01:00,63.3,25.9,29.29,South,180,0.0,0.0,24,0.00,,---,0.00,VWS V13.01,2013-05-03 17:01:00,
2013-05-03 13:06:00,63.3,25.9,29.26,SE,135,0.0,0.0,24,0.00,,---,0.00,VWS V13.01,2013-05-03 17:06:00,
2013-05-03 13:11:00,63.5,26.1,29.26,SW,225,0.0,0.0,24,0.00,,---,0.00,VWS V13.01,2013-05-03 17:11:00,
2013-05-03 13:16:00,63.9,26.4,29.26,ESE,112,0.0,0.0,24,0.00,,---,0.00,VWS V13.01,2013-05-03 17:16:00,
2013-05-03 13:22:00,64.2,26.7,29.29,SE,135,0.0,0.0,24,0.00,,---,0.00,VWS V13.01,2013-05-03 17:22:00,
2013-05-03 13:27:00,64.6,26.0,29.29,South,180,0.0,0.0,23,0.00,,---,0.00,VWS V13.01,2013-05-03 17:27:00,
2013-05-03 13:32:00,65.3,26.6,29.29,SE,135,0.0,0.0,23,0.00,,---,0.00,VWS V13.01,2013-05-03 17:32:00,
2013-05-03 13:37:00,65.1,26.4,29.26,SE,135,0.0,0.0,23,0.00,,---,0.00,VWS V13.01,2013-05-03 17:37:00,
2013-05-03 13:42:00,64.9,26.3,29.26,SE,135,0.0,0.0,23,0.00,,---,0.00,VWS V13.01,2013-05-03 17:42:00,
2013-05-03 13:47:00,64.9,26.3,29.26,West,270,0.0,0.0,23,0.00,,---,0.00,VWS V13.01,2013-05-03 17:47:00,
2013-05-03 13:52:00,66.7,26.7,29.26,SE,135,0.0,0.0,22,0.00,,---,0.00,VWS V13.01,2013-05-03 17:52:00,
2013-05-03 13:57:00,67.8,27.6,29.26,WSW,248,0.0,0.0,22,0.00,,---,0.00,VWS V13.01,2013-05-03 17:57:00,
2013-05-03 14:02:00,68.2,25.6,29.26,SE,135,0.0,0.0,20,0.00,,---,0.00,VWS V13.01,2013-05-03 18:02:00,
2013-05-03 14:08:00,68.2,25.6,29.26,SE,135,0.0,0.0,20,0.00,,---,0.00,VWS V13.01,2013-05-03 18:08:00,
2013-05-03 14:13:00,68.2,25.6,29.26,WNW,292,0.0,0.0,20,0.00,,---,0.00,VWS V13.01,2013-05-03 18:13:00,
2013-05-03 14:18:00,68.0,25.5,29.26,West,270,0.0,0.0,20,0.00,,---,0.00,VWS V13.01,2013-05-03 18:18:00,
2013-05-03 14:23:00,67.8,25.3,29.26,South,180,0.0,0.0,20,0.00,,---,0.00,VWS V13.01,2013-05-03 18:23:00,
2013-05-03 14:28:00,68.2,25.6,29.26,SE,135,0.0,0.0,20,0.00,,---,0.00,VWS V13.01,2013-05-03 18:28:00,
2013-05-03 14:33:00,69.3,26.5,29.26,NE,45,0.0,0.0,20,0.00,,---,0.00,VWS V13.01,2013-05-03 18:33:00,
2013-05-03 14:38:00,69.3,26.5,29.26,SE,135,0.0,0.0,20,0.00,,---,0.00,VWS V13.01,2013-05-03 18:38:00,
2013-05-03 14:43:00,68.7,26.1,29.26,South,180,0.0,0.0,20,0.00,,---,0.00,VWS V13.01,2013-05-03 18:43:00,
2013-05-03 14:48:00,68.9,26.2,29.26,WSW,248,0.0,0.0,20,0.00,,---,0.00,VWS V13.01,2013-05-03 18:48:00,
2013-05-03 14:53:00,68.2,25.6,29.23,WSW,248,0.0,0.0,20,0.00,,---,0.00,VWS V13.01,2013-05-03 18:53:00,
2013-05-03 14:58:00,68.0,25.5,29.23,South,180,0.0,0.0,20,0.00,,---,0.00,VWS V13.01,2013-05-03 18:58:00,
2013-05-03 15:04:00,68.0,25.5,29.23,NE,45,0.0,0.0,20,0.00,,---,0.00,VWS V13.01,2013-05-03 19:04:00,
2013-05-03 15:09:00,67.8,25.3,29.23,East,90,0.0,0.0,20,0.00,,---,0.00,VWS V13.01,2013-05-03 19:09:00,
2013-05-03 15:14:00,68.0,21.6,29.23,SE,135,0.0,0.0,17,0.00,,---,0.00,VWS V13.01,2013-05-03 19:14:00,
2013-05-03 15:19:00,67.3,21.0,29.23,SW,225,0.0,0.0,17,0.00,,---,0.00,VWS V13.01,2013-05-03 19:19:00,
2013-05-03 15:24:00,67.3,21.0,29.23,NE,45,0.0,0.0,17,0.00,,---,0.00,VWS V13.01,2013-05-03 19:24:00,
2013-05-03 15:29:00,68.9,22.3,29.23,South,180,0.0,0.0,17,0.00,,---,0.00,VWS V13.01,2013-05-03 19:29:00,
2013-05-03 15:34:00,70.2,23.4,29.23,South,180,0.0,0.0,17,0.00,,---,0.00,VWS V13.01,2013-05-03 19:34:00,
2013-05-03 15:39:00,70.7,23.8,29.26,South,180,0.0,0.0,17,0.00,,---,0.00,VWS V13.01,2013-05-03 19:39:00,
2013-05-03 15:45:00,70.2,23.4,29.26,South,180,0.0,0.0,17,0.00,,---,0.00,VWS V13.01,2013-05-03 19:45:00,
2013-05-03 15:50:00,71.1,24.1,29.26,SW,225,0.0,0.0,17,0.00,,---,0.00,VWS V13.01,2013-05-03 19:50:00,
2013-05-03 15:55:00,70.9,23.9,29.23,East,90,0.0,0.0,17,0.00,,---,0.00,VWS V13.01,2013-05-03 19:55:00,
2013-05-03 16:00:00,71.8,23.2,29.23,NE,45,0.0,0.0,16,0.00,,---,0.00,VWS V13.01,2013-05-03 20:00:00,
2013-05-03 16:05:00,72.1,23.5,29.23,South,180,0.0,0.0,16,0.00,,---,0.00,VWS V13.01,2013-05-03 20:05:00,
2013-05-03 16:10:00,72.3,23.6,29.23,SE,135,0.0,0.0,16,0.00,,---,0.00,VWS V13.01,2013-05-03 20:10:00,
2013-05-03 16:15:00,72.7,23.9,29.23,SSE,158,0.0,0.0,16,0.00,,---,0.00,VWS V13.01,2013-05-03 20:15:00,
2013-05-03 16:20:00,73.2,24.4,29.23,NE,45,0.0,0.0,16,0.00,,---,0.00,VWS V13.01,2013-05-03 20:20:00,
2013-05-03 16:25:00,72.3,23.6,29.23,SW,225,0.0,0.0,16,0.00,,---,0.00,VWS V13.01,2013-05-03 20:25:00,
2013-05-03 16:30:00,73.0,24.2,29.23,South,180,0.0,0.0,16,0.00,,---,0.00,VWS V13.01,2013-05-03 20:30:00,
2013-05-03 16:35:00,73.0,24.2,29.23,NE,45,0.0,0.0,16,0.00,,---,0.00,VWS V13.01,2013-05-03 20:35:00,
2013-05-03 16:40:00,72.9,24.1,29.23,ESE,112,0.0,0.0,16,0.00,,---,0.00,VWS V13.01,2013-05-03 20:40:00,
2013-05-03 16:45:00,73.0,24.2,29.23,ESE,112,0.0,0.0,16,0.00,,---,0.00,VWS V13.01,2013-05-03 20:45:00,
2013-05-03 16:51:00,73.4,24.5,29.23,WSW,248,0.0,0.0,16,0.00,,---,0.00,VWS V13.01,2013-05-03 20:51:00,
2013-05-03 16:56:00,73.2,24.4,29.20,SW,225,0.0,0.0,16,0.00,,---,0.00,VWS V13.01,2013-05-03 20:56:00,
2013-05-03 17:01:00,73.0,24.2,29.20,SSW,202,0.0,0.0,16,0.00,,---,0.00,VWS V13.01,2013-05-03 21:01:00,
2013-05-03 17:06:00,72.0,23.4,29.20,SSW,202,0.0,0.0,16,0.00,,---,0.00,VWS V13.01,2013-05-03 21:06:00,
2013-05-03 17:11:00,71.8,23.2,29.23,SSW,202,0.0,0.0,16,0.00,,---,0.00,VWS V13.01,2013-05-03 21:11:00,
2013-05-03 17:16:00,70.3,23.5,29.23,WSW,248,0.0,0.0,17,0.00,,---,0.00,VWS V13.01,2013-05-03 21:16:00,
2013-05-03 17:21:00,69.4,22.8,29.23,South,180,0.0,0.0,17,0.00,,---,0.00,VWS V13.01,2013-05-03 21:21:00,
2013-05-03 17:26:00,69.8,23.1,29.23,WSW,248,0.0,0.0,17,0.00,,---,0.00,VWS V13.01,2013-05-03 21:26:00,
2013-05-03 17:31:00,69.8,23.1,29.23,WSW,248,0.0,0.0,17,0.00,,---,0.00,VWS V13.01,2013-05-03 21:31:00,
2013-05-03 17:36:00,69.8,23.1,29.23,WSW,248,0.0,0.0,17,0.00,,---,0.00,VWS V13.01,2013-05-03 21:36:00,
2013-05-03 17:42:00,69.3,22.6,29.23,WSW,248,0.0,0.0,17,0.00,,---,0.00,VWS V13.01,2013-05-03 21:42:00,
2013-05-03 17:47:00,68.4,21.9,29.23,WSW,248,0.0,0.0,17,0.00,,---,0.00,VWS V13.01,2013-05-03 21:47:00,
2013-05-03 17:52:00,68.0,21.6,29.23,WSW,248,0.0,0.0,17,0.00,,---,0.00,VWS V13.01,2013-05-03 21:52:00,
2013-05-03 17:57:00,67.6,21.3,29.20,WSW,248,0.0,0.0,17,0.00,,---,0.00,VWS V13.01,2013-05-03 21:57:00,
2013-05-03 18:02:00,67.6,21.3,29.20,WSW,248,0.0,0.0,17,0.00,,---,0.00,VWS V13.01,2013-05-03 22:02:00,
2013-05-03 18:07:00,67.1,20.9,29.20,WSW,248,0.0,0.0,17,0.00,,---,0.00,VWS V13.01,2013-05-03 22:07:00,
2013-05-03 18:12:00,66.7,20.6,29.20,WSW,248,0.0,0.0,17,0.00,,---,0.00,VWS V13.01,2013-05-03 22:12:00,
2013-05-03 18:17:00,66.7,20.6,29.20,WSW,248,0.0,0.0,17,0.00,,---,0.00,VWS V13.01,2013-05-03 22:17:00,
2013-05-03 18:22:00,66.0,21.3,29.23,WSW,248,0.0,0.0,18,0.00,,---,0.00,VWS V13.01,2013-05-03 22:22:00,
2013-05-03 18:28:00,65.8,21.2,29.23,North,0,0.0,0.0,18,0.00,,---,0.00,VWS V13.01,2013-05-03 22:28:00,
2013-05-03 18:33:00,65.8,21.2,29.23,North,0,0.0,0.0,18,0.00,,---,0.00,VWS V13.01,2013-05-03 22:33:00,
2013-05-03 18:38:00,65.5,20.9,29.20,West,270,0.0,0.0,18,0.00,,---,0.00,VWS V13.01,2013-05-03 22:38:00,
2013-05-03 18:43:00,65.3,20.7,29.20,West,270,0.0,0.0,18,0.00,,---,0.00,VWS V13.01,2013-05-03 22:43:00,
2013-05-03 18:48:00,64.8,20.3,29.20,NE,45,0.0,0.0,18,0.00,,---,0.00,VWS V13.01,2013-05-03 22:48:00,
2013-05-03 18:53:00,64.8,20.3,29.20,NE,45,0.0,0.0,18,0.00,,---,0.00,VWS V13.01,2013-05-03 22:53:00,
2013-05-03 18:58:00,64.4,20.0,29.20,SE,135,0.0,0.0,18,0.00,,---,0.00,VWS V13.01,2013-05-03 22:58:00,
2013-05-03 19:03:00,64.0,19.7,29.20,SW,225,0.0,0.0,18,0.00,,---,0.00,VWS V13.01,2013-05-03 23:03:00,
2013-05-03 19:08:00,63.9,19.6,29.23,West,270,0.0,0.0,18,0.00,,---,0.00,VWS V13.01,2013-05-03 23:08:00,
2013-05-03 19:13:00,63.7,19.4,29.23,West,270,0.0,0.0,18,0.00,,---,0.00,VWS V13.01,2013-05-03 23:13:00,
2013-05-03 19:18:00,63.3,19.1,29.23,West,270,0.0,0.0,18,0.00,,---,0.00,VWS V13.01,2013-05-03 23:18:00,
2013-05-03 19:24:00,63.0,18.8,29.23,SW,225,0.0,0.0,18,0.00,,---,0.00,VWS V13.01,2013-05-03 23:24:00,
2013-05-03 19:29:00,62.6,18.5,29.23,SW,225,0.0,0.0,18,0.00,,---,0.00,VWS V13.01,2013-05-03 23:29:00,
2013-05-03 19:34:00,62.6,18.5,29.23,SW,225,0.0,0.0,18,0.00,,---,0.00,VWS V13.01,2013-05-03 23:34:00,
2013-05-03 19:39:00,62.2,19.5,29.23,SW,225,0.0,0.0,19,0.00,,---,0.00,VWS V13.01,2013-05-03 23:39:00,
2013-05-03 19:44:00,62.1,19.3,29.23,SW,225,0.0,0.0,19,0.00,,---,0.00,VWS V13.01,2013-05-03 23:44:00,
2013-05-03 19:49:00,61.7,19.0,29.23,SW,225,0.0,0.0,19,0.00,,---,0.00,VWS V13.01,2013-05-03 23:49:00,
2013-05-03 19:54:00,61.3,18.8,29.23,SW,225,0.0,0.0,19,0.00,,---,0.00,VWS V13.01,2013-05-03 23:54:00,
2013-05-03 19:59:00,61.0,18.5,29.23,West,270,0.0,0.0,19,0.00,,---,0.00,VWS V13.01,2013-05-03 23:59:00,
2013-05-03 20:04:00,60.8,18.3,29.23,WNW,292,0.0,0.0,19,0.00,,---,0.00,VWS V13.01,2013-05-04 00:04:00,
2013-05-03 20:09:00,60.4,18.0,29.23,WNW,292,0.0,0.0,19,0.00,,---,0.00,VWS V13.01,2013-05-04 00:09:00,
2013-05-03 20:14:00,60.3,17.9,29.23,WNW,292,0.0,0.0,19,0.00,,---,0.00,VWS V13.01,2013-05-04 00:14:00,
2013-05-03 20:19:00,60.3,17.9,29.23,South,180,0.0,0.0,19,0.00,,---,0.00,VWS V13.01,2013-05-04 00:19:00,
2013-05-03 20:24:00,59.7,20.8,29.23,South,180,0.0,0.0,22,0.00,,---,0.00,VWS V13.01,2013-05-04 00:24:00,
2013-05-03 20:30:00,59.4,20.5,29.23,SW,225,0.0,0.0,22,0.00,,---,0.00,VWS V13.01,2013-05-04 00:30:00,
2013-05-03 20:35:00,59.2,22.4,29.23,SW,225,0.0,0.0,24,0.00,,---,0.00,VWS V13.01,2013-05-04 00:35:00,
2013-05-03 20:40:00,58.8,22.1,29.23,West,270,0.0,0.0,24,0.00,,---,0.00,VWS V13.01,2013-05-04 00:40:00,
2013-05-03 20:45:00,58.6,22.9,29.23,SSW,202,0.0,0.0,25,0.00,,---,0.00,VWS V13.01,2013-05-04 00:45:00,
2013-05-03 20:50:00,58.5,22.8,29.23,SSW,202,0.0,0.0,25,0.00,,---,0.00,VWS V13.01,2013-05-04 00:50:00,
2013-05-03 20:55:00,58.3,22.6,29.23,SSW,202,0.0,0.0,25,0.00,,---,0.00,VWS V13.01,2013-05-04 00:55:00,
2013-05-03 21:00:00,58.1,22.5,29.23,SSW,202,0.0,0.0,25,0.00,,---,0.00,VWS V13.01,2013-05-04 01:00:00,
2013-05-03 21:05:00,57.9,22.3,29.23,SE,135,0.0,0.0,25,0.00,,---,0.00,VWS V13.01,2013-05-04 01:05:00,
2013-05-03 21:10:00,57.6,22.0,29.26,SSW,202,0.0,0.0,25,0.00,,---,0.00,VWS V13.01,2013-05-04 01:10:00,
2013-05-03 21:15:00,57.6,21.1,29.26,SSW,202,0.0,0.0,24,0.00,,---,0.00,VWS V13.01,2013-05-04 01:15:00,
2013-05-03 21:20:00,57.4,20.9,29.26,SSW,202,0.0,0.0,24,0.00,,---,0.00,VWS V13.01,2013-05-04 01:20:00,
2013-05-03 21:25:00,57.0,21.6,29.26,SSW,202,0.0,0.0,25,0.00,,---,0.00,VWS V13.01,2013-05-04 01:25:00,
2013-05-03 21:30:00,56.8,21.4,29.26,SW,225,0.0,0.0,25,0.00,,---,0.00,VWS V13.01,2013-05-04 01:30:00,
2013-05-03 21:35:00,56.7,18.3,29.26,ESE,112,0.0,0.0,22,0.00,,---,0.00,VWS V13.01,2013-05-04 01:35:00,
2013-05-03 21:40:00,56.5,18.1,29.26,ESE,112,0.0,0.0,22,0.00,,---,0.00,VWS V13.01,2013-05-04 01:40:00,
2013-05-03 21:46:00,56.3,18.0,29.26,SW,225,0.0,0.0,22,0.00,,---,0.00,VWS V13.01,2013-05-04 01:46:00,
2013-05-03 21:51:00,56.3,18.0,29.26,West,270,0.0,0.0,22,0.00,,---,0.00,VWS V13.01,2013-05-04 01:51:00,
2013-05-03 21:56:00,56.3,18.0,29.26,SE,135,0.0,0.0,22,0.00,,---,0.00,VWS V13.01,2013-05-04 01:56:00,
2013-05-03 22:01:00,55.8,17.5,29.26,SE,135,0.0,0.0,22,0.00,,---,0.00,VWS V13.01,2013-05-04 02:01:00,
2013-05-03 22:06:00,55.2,18.1,29.26,SE,135,0.0,0.0,23,0.00,,---,0.00,VWS V13.01,2013-05-04 02:06:00,
2013-05-03 22:11:00,54.9,17.8,29.26,SE,135,0.0,0.0,23,0.00,,---,0.00,VWS V13.01,2013-05-04 02:11:00,
2013-05-03 22:16:00,54.5,19.4,29.26,West,270,0.0,0.0,25,0.00,,---,0.00,VWS V13.01,2013-05-04 02:16:00,
2013-05-03 22:21:00,54.5,19.4,29.26,NE,45,0.0,0.0,25,0.00,,---,0.00,VWS V13.01,2013-05-04 02:21:00,
2013-05-03 22:26:00,54.0,19.0,29.26,NE,45,0.0,0.0,25,0.00,,---,0.00,VWS V13.01,2013-05-04 02:26:00,
2013-05-03 22:31:00,54.0,19.0,29.26,NE,45,0.0,0.0,25,0.00,,---,0.00,VWS V13.01,2013-05-04 02:31:00,
2013-05-03 22:36:00,53.8,18.8,29.26,SE,135,0.0,0.0,25,0.00,,---,0.00,VWS V13.01,2013-05-04 02:36:00,
2013-05-03 22:41:00,53.4,19.4,29.26,SE,135,0.0,0.0,26,0.00,,---,0.00,VWS V13.01,2013-05-04 02:41:00,
2013-05-03 22:46:00,53.2,19.3,29.26,SE,135,0.0,0.0,26,0.00,,---,0.00,VWS V13.01,2013-05-04 02:46:00,
2013-05-03 22:51:00,53.1,19.1,29.26,West,270,0.0,0.0,26,0.00,,---,0.00,VWS V13.01,2013-05-04 02:51:00,
2013-05-03 22:56:00,52.9,19.0,29.26,SE,135,0.0,0.0,26,0.00,,---,0.00,VWS V13.01,2013-05-04 02:56:00,
2013-05-03 23:01:00,52.7,18.8,29.26,SE,135,0.0,0.0,26,0.00,,---,0.00,VWS V13.01,2013-05-04 03:01:00,
2013-05-03 23:07:00,52.2,18.3,29.26,SE,135,0.0,0.0,26,0.00,,---,0.00,VWS V13.01,2013-05-04 03:07:00,
2013-05-03 23:12:00,52.0,18.2,29.26,North,0,0.0,0.0,26,0.00,,---,0.00,VWS V13.01,2013-05-04 03:12:00,
2013-05-03 23:17:00,51.8,18.0,29.26,North,0,0.0,0.0,26,0.00,,---,0.00,VWS V13.01,2013-05-04 03:17:00,
2013-05-03 23:22:00,51.8,18.0,29.26,WSW,248,0.0,0.0,26,0.00,,---,0.00,VWS V13.01,2013-05-04 03:22:00,
2013-05-03 23:27:00,51.6,18.8,29.26,SE,135,0.0,0.0,27,0.00,,---,0.00,VWS V13.01,2013-05-04 03:27:00,
2013-05-03 23:32:00,51.6,18.8,29.26,SE,135,0.0,0.0,27,0.00,,---,0.00,VWS V13.01,2013-05-04 03:32:00,
2013-05-03 23:37:00,51.3,18.4,29.26,SW,225,0.0,0.0,27,0.00,,---,0.00,VWS V13.01,2013-05-04 03:37:00,
2013-05-03 23:42:00,51.1,18.3,29.26,NW,315,0.0,0.0,27,0.00,,---,0.00,VWS V13.01,2013-05-04 03:42:00,
2013-05-03 23:47:00,51.1,18.3,29.26,NW,315,0.0,0.0,27,0.00,,---,0.00,VWS V13.01,2013-05-04 03:47:00,
2013-05-03 23:52:00,50.7,18.8,29.26,NW,315,0.0,0.0,28,0.00,,---,0.00,VWS V13.01,2013-05-04 03:52:00,
2013-05-03 23:57:00,50.4,19.3,29.26,NW,315,0.0,0.0,29,0.00,,---,0.00,VWS V13.01,2013-05-04 03:57:00,